Change the Weather History Date:

Saturday, September 21, 2013

  Actual Average Record
Temperature  
Mean Temperature 60 °F -  
Max Temperature 63 °F - - ()
Min Temperature 56 °F - - ()
Degree Days  
Heating Degree Days 5    
Growing Degree Days 10 (Base 50)    
Moisture  
Dew Point 60 °F    
Average Humidity 88    
Maximum Humidity 95    
Minimum Humidity 67    
Precipitation  
Precipitation 0.47 in - - ()
Sea Level Pressure  
Sea Level Pressure 29.68 in    
Wind  
Wind Speed 7 mph ()    
Max Wind Speed 26 mph    
Max Gust Speed -    
T = Trace of Precipitation, MM = Missing Value Source: Averaged Metar Reports

Daily Weather History Graph

Daily Weather History Graph

Search for Another Location

Airport or City:

Trip Planner

Search our weather history database for the weather conditions in past years. The results will help you decide how hot, cold, wet, or windy it might be!

Date:

Astronomy

Sep. 21, 2013 Rise Set
Actual Time 7:03 AM EDT 7:15 PM EDT
Civil Twilight 6:34 AM EDT 7:44 PM EDT
Nautical Twilight 6:01 AM EDT 8:17 PM EDT
Astronomical Twilight 5:27 AM EDT 8:51 PM EDT
Moon 8:19 PM EDT (9/21) 9:24 AM EDT (9/21)
Length of Visible Light 13h 09m
Length of Day
12h 12m
Waning Gibbous, 94% of the Moon is Illuminated
Sep 21
Waning Gibbous
Sep 26
Last Quarter
Oct 4
New
Oct 11
First Quarter
Oct 18
Full

Hourly Weather History & Observations

Time (EDT) Temp. Dew Point Humidity Pressure Visibility Wind Dir Wind Speed Gust Speed Precip Events Conditions
12:00 AM 73.6 °F 65.3 °F 75% 29.70 in - NNE 12.7 mph - N/A   Unknown
1:00 AM 72.3 °F 65.5 °F 79% 29.71 in - NNE 6.9 mph - N/A   Unknown
2:00 AM 69.4 °F 66.6 °F 91% 29.70 in - NNE 5.8 mph - 0.06 in   Unknown
3:00 AM 68.7 °F 66.6 °F 93% 29.69 in - NNE 6.9 mph - 0.10 in   Unknown
4:00 AM 68.4 °F 66.4 °F 93% 29.69 in - NNE 4.6 mph - 0.07 in   Unknown
5:00 AM 67 °F 65 °F 91% 29.69 in - NNE 2.3 mph - -  
5:00 AM 66.9 °F 64.9 °F 93% 29.69 in - NNE 2.3 mph - N/A   Unknown
6:00 AM 63.5 °F 61.7 °F 94% 29.69 in - NNE 1.2 mph - 0.12 in   Unknown
7:00 AM 63.0 °F 61.3 °F 94% 29.68 in - NNE 1.2 mph - 0.04 in   Unknown
8:00 AM 63 °F 61 °F 92% 29.65 in - NNE 5.8 mph - -  
8:00 AM 62.8 °F 61.2 °F 94% 29.65 in - NNE 5.8 mph - 0.13 in   Unknown
9:00 AM 63.1 °F 61.5 °F 94% 29.67 in - NNE 5.8 mph - 0.09 in   Unknown
10:00 AM 63.0 °F 61.5 °F 95% 29.69 in - NNE 6.9 mph - 0.23 in   Unknown
11:00 AM 63 °F 61 °F 90% 29.68 in - NNE 9.2 mph - -  
11:00 AM 62.8 °F 60.8 °F 93% 29.68 in - NNE 9.2 mph - 0.07 in   Unknown
12:00 PM 63.0 °F 60.6 °F 92% 29.68 in - NNE 6.9 mph - 0.07 in   Unknown
1:00 PM 62.4 °F 60.1 °F 92% 29.68 in - NNE 3.5 mph - 0.08 in   Unknown
2:00 PM 62 °F 59 °F 88% 29.65 in - NNE 8.1 mph - -  
2:00 PM 61.9 °F 59.4 °F 91% 29.65 in - NNE 8.1 mph - 0.08 in   Unknown
3:00 PM 61.9 °F 59.2 °F 91% 29.63 in - NNE 8.1 mph - 0.06 in   Unknown
4:00 PM 61.3 °F 59.2 °F 93% 29.64 in - NNE 6.9 mph - 0.07 in   Unknown
5:00 PM 61 °F 59 °F 92% 29.63 in - NNE 3.5 mph - -  
5:00 PM 61.3 °F 59.2 °F 93% 29.63 in - NNE 3.5 mph - 0.03 in   Unknown
6:00 PM 61.2 °F 59.0 °F 93% 29.62 in - NNE 5.8 mph - 0.03 in   Unknown
7:00 PM 58.1 °F 56.5 °F 94% 29.66 in - NE 26.5 mph - 0.21 in   Unknown
8:00 PM 58 °F 53 °F 77% 29.69 in - NE 23.0 mph - -  
8:00 PM 58.5 °F 52.7 °F 81% 29.69 in - NE 23.0 mph - 0.03 in   Unknown
9:00 PM 58.1 °F 51.1 °F 77% 29.72 in - WNW 16.1 mph - N/A   Unknown
10:00 PM 57.6 °F 50.0 °F 76% 29.74 in - WNW 15.0 mph - N/A   Unknown
11:00 PM 57 °F 49 °F 67% 29.76 in - West 15.0 mph - -  
11:00 PM 56.8 °F 48.9 °F 75% 29.76 in - West 15.0 mph - N/A   Unknown